Location: Cantaing
(50.1487°N, 3.1675°E)
Time: 10:57:23
(UTC+00:00)

COSMO-SKYMED 1 - Pass Details

Date: 14 January 2026
Orbit: 578 x 579 km, 97.9° (Epoch: 11 February)

Event Time Altitude Azimuth Distance (km) Brightness Sun altitude
Rises 05:39:10 0° 182° (S) 2,787 6.0 -18.9°
Reaches altitude 10° 05:41:23 10° 189° (S) 1,892 5.1 -18.5°
Maximum altitude 05:45:18 43° 261° (W) 824 2.7 -17.9°
Enters shadow 05:46:06 38° 293° (WNW) 895 2.9 -17.8°
